DW8248 Weather Reports


time (UTC)temp
F
wind
direction
speed
knots
gust
knots
rain 1hr
in
rain 24hr
in
rain mn
in
humidity
%
barometer
mb
20260902112953 81 331 0.0 0.0 0.00 0.51 0.51 88 1014.8
20260902111928 81 342 0.0 0.0 0.00 0.51 0.51 88 1014.9
20260902110901 81 355 0.0 0.0 0.00 0.51 0.51 88 1014.7
20260902105844 81 305 0.0 0.0 0.00 0.51 0.51 87 1014.5
20260902104900 81 315 0.0 1.7 0.00 0.51 0.51 87 1014.5
20260902103846 81 16 0.0 0.0 0.00 0.51 0.51 87 1014.3
20260902102844 81 16 0.0 0.0 0.00 0.51 0.51 86 1014.4
20260902101813 81 16 0.0 0.0 0.00 0.51 0.51 85 1014.2
20260902100821 82 10 0.0 0.0 0.00 0.51 0.51 85 1014.2
20260902095747 82 344 0.9 5.2 0.00 0.51 0.51 84 1014.1
20260902094715 82 304 2.6 6.1 0.00 0.51 0.51 85 1014.3
20260902093733 81 337 3.5 6.1 0.00 0.51 0.51 86 1014.2
20260902092700 81 309 3.5 7.0 0.00 0.51 0.51 86 1014.2
20260902090556 80 285 0.9 5.2 1.14 0.44 0.46 87 1014.2
20260902085606 80 253 5.2 11.3 0.83 0.16 0.18 87 1014.1
20260902084539 81 192 8.7 11.3 0.96 0.00 0.02 86 1014.0
20260902083535 81 215 7.8 9.6 0.00 0.00 0.00 85 1013.8
20260902082540 81 217 6.1 8.7 0.00 0.00 0.00 87 1013.9
20260902081514 81 209 7.0 8.7 0.00 0.00 0.00 87 1014.0
20260902080458 82 260 5.2 7.8 0.00 0.00 0.00 87 1014.0
20260902075514 82 281 6.1 7.8 0.00 0.00 0.00 86 1014.0
20260902073341 82 327 2.6 4.3 0.00 0.00 0.00 86 1013.9
20260902072357 83 321 2.6 4.3 0.00 0.00 0.00 86 1014.0
20260902071328 82 325 1.7 3.5 0.00 0.00 0.00 86 1014.1
20260902070254 82 5 1.7 2.6 0.00 0.00 0.00 86 1014.1
20260902065308 82 350 1.7 3.5 0.00 0.00 0.00 86 1014.1
20260902063214 83 340 2.6 5.2 0.00 0.00 0.00 86 1014.3
20260902062235 82 310 1.7 3.5 0.00 0.00 0.00 86 1014.2
20260902061215 83 346 0.9 2.6 0.00 0.00 0.00 86 1014.3
20260902053855 83 350 0.9 1.7 0.00 0.00 0.00 84 1014.6
20260902052840 83 14 0.9 2.6 0.00 0.00 0.00 84 1014.6
20260902051838 83 20 0.9 5.2 0.00 0.00 0.00 84 1014.5
20260902050850 83 33 1.7 5.2 0.00 0.00 0.00 84 1014.4
20260902044719 83 355 0.0 0.0 0.00 0.00 0.00 84 1014.6
20260902043714 83 348 0.0 0.0 0.00 0.00 0.00 84 1014.6
20260902042726 83 5 0.0 0.0 0.00 0.00 0.00 84 1014.6
20260902041715 83 15 0.9 3.5 0.00 0.00 0.00 84 1014.7
20260902040642 83 35 0.9 3.5 0.00 0.00 0.00 83 1014.7
20260902035635 83 355 1.7 5.2 0.00 0.00 0.00 83 1014.7
20260902031235 83 0 1.7 5.2 0.00 0.00 0.00 83 1015.3
20260902030206 83 355 2.6 6.1 0.00 0.00 0.00 83 1015.4
20260902025151 83 355 3.5 6.1 0.00 0.00 0.00 83 1015.6
20260902024115 83 38 4.3 7.8 0.00 0.00 0.00 82 1015.7
20260902023039 83 34 4.3 7.8 0.00 0.00 0.00 82 1015.5
20260902022021 83 339 4.3 8.7 0.00 0.00 0.00 82 1015.5
20260902015833 83 0 3.5 7.0 0.00 0.00 0.00 82 1015.4
20260902014758 83 15 2.6 7.0 0.00 0.00 0.00 82 1015.6
20260902012640 83 355 4.3 8.7 0.00 0.00 0.00 80 1015.2
20260902011614 83 355 2.6 7.0 0.00 0.00 0.00 80 1015.1
20260902010556 83 5 4.3 7.8 0.00 0.00 0.00 81 1015.1
20260902005617 83 0 4.3 8.7 0.00 0.00 0.00 82 1015.1
20260902004545 83 348 4.3 8.7 0.00 0.00 0.00 82 1015.1
20260902003508 84 355 2.6 7.0 0.00 0.00 0.00 82 1015.1
20260902001405 84 0 3.5 7.8 0.00 0.00 0.00 82 1015.2
20260902000407 84 351 3.5 7.8 0.00 0.00 0.00 81 1015.2
20260901235411 84 15 2.6 6.1 0.00 0.00 0.00 82 1015.2
20260901234336 84 0 2.6 7.8 0.00 0.00 0.00 82 1015.2
20260901233327 84 9 3.5 7.8 0.00 0.00 0.00 81 1015.0
20260901232324 84 344 4.3 8.7 0.00 0.00 0.00 81 1015.0
20260901231330 84 9 4.3 8.7 0.00 0.00 0.00 81 1014.9
20260901230341 85 18 5.2 8.7 0.00 0.00 0.00 80 1014.8
20260901225319 85 24 5.2 8.7 0.00 0.00 0.00 78 1014.7
20260901224333 85 37 3.5 7.0 0.00 0.00 0.00 78 1014.7
20260901223311 85 351 3.5 8.7 0.00 0.00 0.00 79 1014.7
20260901222317 85 34 4.3 8.7 0.00 0.00 0.00 78 1014.5
20260901221318 85 57 5.2 10.4 0.00 0.00 0.00 76 1014.5
20260901220338 85 355 5.2 10.4 0.00 0.00 0.00 77 1014.4
20260901215335 85 43 5.2 10.4 0.00 0.00 0.00 78 1014.3
20260901214316 85 45 5.2 10.4 0.00 0.00 0.00 78 1014.2
20260901213307 86 49 6.1 11.3 0.00 0.00 0.00 80 1014.2
20260901212249 86 30 7.0 11.3 0.00 0.00 0.00 79 1014.2
20260901211227 86 45 7.0 12.2 0.00 0.00 0.00 79 1014.4
20260901210209 86 17 7.0 12.2 0.00 0.00 0.00 77 1014.5
20260901204028 86 42 7.8 13.9 0.00 0.00 0.00 76 1014.6
20260901203041 87 29 7.0 13.0 0.00 0.00 0.00 76 1014.6
20260901202103 87 25 7.8 13.0 0.00 0.00 0.00 74 1014.7
20260901201039 87 28 7.0 12.2 0.00 0.00 0.00 74 1014.8
20260901194837 87 22 7.0 11.3 0.00 0.00 0.00 74 1014.9
20260901193808 87 0 6.1 10.4 0.00 0.00 0.00 75 1015.1
20260901190527 86 350 6.1 11.3 0.00 0.00 0.00 76 1015.1
20260901184335 86 25 7.0 13.0 0.00 0.00 0.00 76 1015.3
20260901183258 86 44 7.8 13.0 0.00 0.00 0.00 77 1015.4
20260901182305 86 51 7.0 12.2 0.00 0.00 0.00 77 1015.5
20260901181319 87 54 7.0 12.2 0.00 0.00 0.00 77 1015.5
20260901180322 86 56 7.0 12.2 0.00 0.00 0.00 77 1015.6
20260901175334 87 5 7.0 11.3 0.00 0.00 0.00 78 1015.8
20260901174348 87 348 7.0 12.2 0.00 0.00 0.00 78 1016.0
20260901173322 86 0 7.8 12.2 0.00 0.00 0.00 77 1016.3
20260901172325 87 9 6.1 10.4 0.00 0.00 0.00 77 1016.4
20260901171324 87 32 6.1 11.3 0.00 0.00 0.00 76 1016.2
20260901170303 87 53 7.0 11.3 0.00 0.00 0.00 76 1016.3
20260901165300 87 12 7.0 11.3 0.00 0.00 0.00 77 1016.4
20260901164250 87 40 6.1 11.3 0.00 0.00 0.00 78 1016.4
20260901163215 86 15 7.0 12.2 0.00 0.00 0.00 78 1016.5
20260901162230 86 15 7.8 12.2 0.00 0.00 0.00 79 1016.5
20260901161210 86 36 7.0 10.4 0.00 0.00 0.00 79 1016.6
20260901160223 86 44 7.0 10.4 0.00 0.00 0.00 79 1016.6
20260901155245 86 0 6.1 9.6 0.00 0.00 0.00 78 1016.7
20260901152018 85 346 7.8 10.4 0.00 0.00 0.00 78 1016.8
20260901151022 86 24 6.1 10.4 0.00 0.00 0.00 77 1016.8
20260901150013 85 329 6.1 10.4 0.00 0.00 0.00 79 1016.6
20260901145021 85 47 6.1 9.6 0.00 0.00 0.00 80 1016.8
20260901144000 85 355 6.1 9.6 0.00 0.00 0.00 81 1016.8
20260901143014 85 355 6.1 9.6 0.00 0.00 0.00 81 1016.7
20260901135701 85 12 4.3 7.8 0.00 0.00 0.00 81 1016.4
20260901134717 85 346 5.2 7.8 0.00 0.00 0.00 82 1016.3
20260901132525 85 344 4.3 8.7 0.00 0.00 0.00 80 1016.1
20260901131513 85 347 4.3 7.8 0.00 0.00 0.00 80 1016.1
20260901130536 85 350 3.5 7.0 0.00 0.00 0.00 81 1016.0
20260901125542 85 351 4.3 6.1 0.00 0.00 0.00 81 1016.0
20260901124558 85 5 2.6 5.2 0.00 0.00 0.00 81 1015.9
20260901123615 85 19 1.7 5.2 0.00 0.00 0.00 83 1015.8
20260901122618 84 5 2.6 5.2 0.00 0.00 0.00 84 1015.7
20260901121639 84 23 1.7 3.5 0.00 0.00 0.00 85 1015.6
20260901120637 83 0 0.9 2.6 0.00 0.00 0.00 87 1015.6
20260901114439 82 355 1.7 5.2 0.00 0.00 0.00 87 1015.3